EN

Hourly Weather Brestiv

Today, 16 April, Friday

Time Temperature Precipitation Wind Pressure Humidity
00:00 +1°C° 0 mm 0 mps 719 mmHg 95%
01:00 +2°C° 0 mm 1 mps 719 mmHg 93%
02:00 +1°C° 0 mm 0 mps 719 mmHg 94%
03:00 +2°C° 0 mm 1 mps 719 mmHg 93%
04:00 +1°C° 0 mm 1 mps 719 mmHg 99%
05:00 +1°C° 0.3 mm 1 mps 719 mmHg 100%
06:00 +1°C° 0 mm 1 mps 719 mmHg 100%
07:00 +1°C° 0 mm 1 mps 719 mmHg 100%
08:00 +1°C° 0 mm 2 mps 719 mmHg 96%
09:00 +2°C° 0 mm 2 mps 719 mmHg 93%
10:00 +2°C° 0 mm 3 mps 720 mmHg 94%
11:00 +3°C° 0 mm 4 mps 720 mmHg 93%
12:00 +3°C° 0 mm 5 mps 720 mmHg 93%
13:00 +3°C° 0 mm 5 mps 720 mmHg 93%
14:00 +5°C° 0 mm 4 mps 720 mmHg 90%
15:00 +6°C° 0.3 mm 4 mps 720 mmHg 89%
16:00 +5°C° 1.4 mm 5 mps 720 mmHg 100%
17:00 +5°C° 0.4 mm 4 mps 720 mmHg 100%
18:00 +5°C° 0.8 mm 4 mps 719 mmHg 97%
19:00 +5°C° 0.1 mm 4 mps 720 mmHg 99%
20:00 +5°C° 0.5 mm 4 mps 720 mmHg 100%
21:00 +4°C° 0.4 mm 4 mps 720 mmHg 100%
22:00 +4°C° 1.2 mm 4 mps 720 mmHg 100%
23:00 +4°C° 1.8 mm 3 mps 720 mmHg 100%

Tomorrow, 17 April, Saturday

Time Temperature Precipitation Wind Pressure Humidity
00:00 +5°C° 1.7 mm 2 mps 720 mmHg 100%
01:00 +4°C° 1.1 mm 2 mps 720 mmHg 100%
02:00 +3°C° 0.5 mm 3 mps 720 mmHg 100%
03:00 +4°C° 0.1 mm 2 mps 720 mmHg 100%
04:00 +4°C° 0.3 mm 2 mps 720 mmHg 100%
05:00 +4°C° 0.1 mm 2 mps 720 mmHg 100%
06:00 +2°C° 0.1 mm 3 mps 720 mmHg 100%
07:00 +3°C° 0.3 mm 3 mps 720 mmHg 100%
08:00 +3°C° 1.1 mm 3 mps 720 mmHg 100%
09:00 +3°C° 1.1 mm 3 mps 721 mmHg 100%
10:00 +5°C° 0.8 mm 2 mps 721 mmHg 100%
11:00 +5°C° 0.7 mm 2 mps 721 mmHg 100%
12:00 +7°C° 0.3 mm 1 mps 721 mmHg 100%
13:00 +8°C° 0.1 mm 2 mps 721 mmHg 99%
14:00 +9°C° 0 mm 2 mps 721 mmHg 96%
15:00 +9°C° 0.5 mm 2 mps 721 mmHg 95%
16:00 +10°C° 0.1 mm 1 mps 720 mmHg 94%
17:00 +11°C° 0 mm 1 mps 720 mmHg 89%
18:00 +11°C° 0 mm 1 mps 720 mmHg 88%
19:00 +10°C° 0 mm 1 mps 720 mmHg 94%
20:00 +8°C° 0 mm 2 mps 720 mmHg 86%
21:00 +8°C° 0 mm 2 mps 719 mmHg 85%
22:00 +8°C° 0 mm 3 mps 719 mmHg 84%
23:00 +8°C° 0 mm 3 mps 719 mmHg 83%

Day after tomorrow, 18 April, Sunday

Time Temperature Precipitation Wind Pressure Humidity
00:00 +7°C° 0 mm 3 mps 719 mmHg 84%
01:00 +7°C° 0 mm 3 mps 719 mmHg 83%
02:00 +7°C° 0 mm 3 mps 719 mmHg 80%
03:00 +7°C° 0 mm 3 mps 719 mmHg 77%
04:00 +7°C° 0 mm 3 mps 718 mmHg 77%
05:00 +7°C° 0 mm 3 mps 718 mmHg 78%
06:00 +7°C° 0 mm 3 mps 718 mmHg 80%
07:00 +7°C° 0 mm 3 mps 718 mmHg 81%
08:00 +8°C° 0 mm 4 mps 718 mmHg 80%
09:00 +10°C° 0 mm 3 mps 718 mmHg 76%
10:00 +12°C° 0 mm 2 mps 719 mmHg 75%
11:00 +13°C° 0 mm 2 mps 719 mmHg 73%
12:00 +14°C° 0 mm 2 mps 719 mmHg 73%
13:00 +13°C° 0 mm 3 mps 718 mmHg 71%
14:00 +13°C° 0 mm 3 mps 718 mmHg 70%
15:00 +12°C° 0 mm 4 mps 718 mmHg 81%
16:00 +9°C° 1.4 mm 3 mps 718 mmHg 95%
17:00 +10°C° 0.2 mm 2 mps 717 mmHg 95%
18:00 +9°C° 0.8 mm 2 mps 717 mmHg 99%
19:00 +8°C° 2.3 mm 2 mps 717 mmHg 100%
20:00 +8°C° 0.3 mm 2 mps 717 mmHg 100%
21:00 +9°C° 0 mm 3 mps 717 mmHg 96%
22:00 +7°C° 0 mm 4 mps 717 mmHg 94%
23:00 +6°C° 0.3 mm 4 mps 717 mmHg 99%

19 April, Monday

Time Temperature Precipitation Wind Pressure Humidity
00:00 +6°C° 0.4 mm 4 mps 716 mmHg 100%
01:00 +6°C° 0.4 mm 4 mps 716 mmHg 100%
02:00 +6°C° 0.2 mm 4 mps 716 mmHg 99%
03:00 +6°C° 0 mm 4 mps 716 mmHg 96%
04:00 +6°C° 0.1 mm 4 mps 715 mmHg 98%
05:00 +7°C° 0 mm 3 mps 715 mmHg 93%
06:00 +8°C° 0 mm 3 mps 715 mmHg 91%
07:00 +8°C° 0 mm 3 mps 715 mmHg 91%
08:00 +8°C° 0 mm 2 mps 715 mmHg 92%
09:00 +8°C° 0.3 mm 2 mps 715 mmHg 99%
10:00 +9°C° 0.1 mm 3 mps 715 mmHg 98%
11:00 +10°C° 0 mm 3 mps 715 mmHg 91%
12:00 +11°C° 0 mm 3 mps 715 mmHg 91%
13:00 +12°C° 0 mm 4 mps 715 mmHg 86%
14:00 +12°C° 0.1 mm 3 mps 714 mmHg 91%
15:00 +12°C° 0.1 mm 3 mps 714 mmHg 93%
16:00 +13°C° 0.1 mm 4 mps 713 mmHg 82%
17:00 +13°C° 0 mm 4 mps 713 mmHg 83%
18:00 +12°C° 0 mm 5 mps 712 mmHg 87%
19:00 +10°C° 0 mm 5 mps 712 mmHg 87%
20:00 +9°C° 0 mm 5 mps 712 mmHg 88%
21:00 +8°C° 0 mm 6 mps 712 mmHg 87%
22:00 +8°C° 0 mm 6 mps 712 mmHg 87%
23:00 +8°C° 0 mm 6 mps 712 mmHg 90%

20 April, Tuesday

Time Temperature Precipitation Wind Pressure Humidity
00:00 +8°C° 0 mm 6 mps 711 mmHg 91%
01:00 +6°C° 0 mm 8 mps 711 mmHg 92%
02:00 +5°C° 0 mm 8 mps 711 mmHg 93%
03:00 +5°C° 0 mm 8 mps 711 mmHg 95%
04:00 +3°C° 0 mm 9 mps 710 mmHg 95%
05:00 +3°C° 0 mm 10 mps 710 mmHg 96%
06:00 +2°C° 0 mm 10 mps 710 mmHg 97%
07:00 +2°C° 0 mm 9 mps 711 mmHg 97%
08:00 +4°C° 0 mm 8 mps 711 mmHg 95%
09:00 +4°C° 0 mm 8 mps 711 mmHg 93%
10:00 +5°C° 0 mm 8 mps 712 mmHg 93%
11:00 +6°C° 0 mm 7 mps 712 mmHg 92%
12:00 +8°C° 0 mm 6 mps 712 mmHg 91%
13:00 +9°C° 0 mm 6 mps 712 mmHg 87%
14:00 +10°C° 0 mm 5 mps 712 mmHg 84%
15:00 +10°C° 0 mm 6 mps 713 mmHg 83%
16:00 +10°C° 0 mm 5 mps 712 mmHg 82%
17:00 +10°C° 0 mm 6 mps 712 mmHg 82%
18:00 +9°C° 0 mm 6 mps 712 mmHg 84%
19:00 +8°C° 0 mm 5 mps 713 mmHg 89%
20:00 +7°C° 0 mm 5 mps 713 mmHg 90%
21:00 +7°C° 0 mm 4 mps 713 mmHg 92%
22:00 +6°C° 0 mm 4 mps 713 mmHg 92%
23:00 +6°C° 0 mm 5 mps 714 mmHg 93%

21 April, Wednesday

Time Temperature Precipitation Wind Pressure Humidity
00:00 +6°C° 0 mm 4 mps 714 mmHg 94%
01:00 +5°C° 0 mm 4 mps 714 mmHg 94%
02:00 +5°C° 0 mm 3 mps 714 mmHg 94%
03:00 +4°C° 0 mm 3 mps 714 mmHg 95%
04:00 +4°C° 0 mm 3 mps 714 mmHg 93%
05:00 +5°C° 0 mm 2 mps 715 mmHg 92%
06:00 +5°C° 0 mm 2 mps 715 mmHg 91%
07:00 +6°C° 0 mm 1 mps 716 mmHg 93%
08:00 +8°C° 0 mm 1 mps 716 mmHg 93%
09:00 +9°C° 0 mm 1 mps 717 mmHg 92%
10:00 +9°C° 0 mm 2 mps 717 mmHg 95%
11:00 +9°C° 0 mm 3 mps 717 mmHg 97%
12:00 +10°C° 0.1 mm 4 mps 718 mmHg 98%
13:00 +10°C° 0.2 mm 4 mps 718 mmHg 97%
14:00 +11°C° 0.2 mm 4 mps 718 mmHg 92%
15:00 +11°C° 0 mm 4 mps 718 mmHg 88%
16:00 +11°C° 0 mm 3 mps 718 mmHg 84%
17:00 +11°C° 0 mm 3 mps 718 mmHg 83%
18:00 +11°C° 0 mm 3 mps 718 mmHg 87%
19:00 +10°C° 0 mm 3 mps 718 mmHg 91%
20:00 +10°C° 0 mm 2 mps 718 mmHg 96%
21:00 +9°C° 0 mm 2 mps 718 mmHg 100%
22:00 +9°C° 0.1 mm 2 mps 719 mmHg 100%
23:00 +9°C° 0 mm 3 mps 719 mmHg 100%
Show more

We Need Your Consent

Meteoprog and our Service Providers may store and access personal data such as cookies, device identifiers or other similar technologies on your device and process such data to personalise content and ads, as well as provide social media features and to analyse the traffic.

  • Store and/or access information on your device

    Cookies, device identifiers or other information can be stored or accessed on your device for the purposes indicated above.

  • Personalised ads and content, ad and content measurement, audience insights, and products development

    Ads and content can be personalised based on a profile. More data can be added to better personalise ads and content. Ad and content performance can be measured. Insights about the audience who saw the ads and content can be derived. Such data can be used to develop or improve user’s experience, systems and software.

By clicking ‘I Agree’ you will allow the use of indicated cookies, device identifiers, web beacons or other similar technologies. Your settings can be changed in the browser on your device.

For certain purposes, legitimate interests may be relied on, rather than consent. You can read more about this in our Privacy and Cookie Policy.